Temperature
21 21 21 21 21 21 21 22 21 22 22 22 22 21 20 19 18 18 17 17 17 16 16 16 16 16 16 16 16 16 16 16 15 15 15 15 15 15 14 14 14 14 14 14
20 20 20 20 21 21 21 21 21 21 22 22 21 20 20 19 18 18 17 17 16 16 16 16 16 16 16 16 16 16 16 15 15 15 15 15 15 15 14 14 14 14 14 14
20 20 20 20 21 21 21 21 21 21 22 22 21 20 20 19 18 17 17 16 16 16 16 16 16 16 16 16 16 16 16 15 15 15 15 15 15 14 14 14 14 14 14 14
20 20 19 21 22 21 21 21 22 22 22 21 21 20 19 18 18 17 17 16 16 16 16 16 16 16 16 16 16 16 15 15 15 15 15 15 15 14 14 14 14 14 14 14
19 19 20 21 21 21 21 21 22 21 21 20 19 19 19 18 17 17 17 16 16 16 16 16 16 16 16 15 15 15 15 15 15 15 15 15 15 14 14 14 14 14 13 13
19 18 19 21 21 21 21 21 21 21 21 20 20 20 20 18 17 17 16 16 16 16 16 16 16 15 15 15 15 15 15 15 15 15 15 15 15 14 14 14 14 13 13 13
18 19 20 21 20 20 20 21 21 21 20 20 20 21 19 17 17 17 16 16 16 16 16 16 16 15 15 15 15 15 15 15 15 15 15 15 14 14 14 14 13 13 13 13
18 18 19 20 19 21 21 21 20 20 20 20 19 18 17 17 17 16 16 16 16 15 15 15 15 15 15 15 15 15 15 15 15 14 14 14 14 14 14 13 13 13 12 12
19 20 20 19 20 19 19 20 20 19 19 18 18 17 17 17 16 16 16 16 16 15 15 15 15 15 15 15 15 14 14 14 14 14 14 14 14 14 13 13 13 12 12 12
19 20 19 18 18 18 18 19 19 19 18 18 18 17 17 16 16 16 16 15 15 15 15 15 15 15 14 14 14 14 14 14 14 14 14 13 13 13 13 13 12 12 12 12
19 19 18 18 17 17 17 17 17 17 17 17 17 17 16 16 16 15 15 15 15 15 15 14 14 14 14 14 14 14 13 13 13 14 14 13 13 13 13 13 12 12 12 12
18 19 19 18 17 17 17 17 17 17 17 17 17 16 16 16 15 15 15 15 15 14 14 14 14 14 14 14 14 13 13 13 13 13 13 13 13 12 12 12 12 12 12 11
17 17 17 16 16 16 16 17 16 17 17 16 16 16 16 16 15 15 15 15 15 14 14 14 14 14 14 14 14 13 13 13 13 13 13 13 12 12 12 11 11 11 11 11
15 15 16 16 16 16 16 16 16 16 16 16 16 16 16 15 15 15 15 15 14 14 14 14 14 14 14 13 13 13 13 13 13 12 12 12 12 12 12 11 11 11 11 10
14 15 15 15 15 15 16 15 15 15 15 15 15 15 15 15 15 15 15 15 14 14 14 14 13 13 13 13 13 13 13 12 12 12 12 12 12 11 11 11 10 10 10 10
14 14 14 14 14 15 15 15 15 15 15 15 15 15 15 15 15 15 14 14 14 14 14 14 13 13 13 13 13 13 12 12 12 12 12 11 11 11 11 10 10 10 10 10
14 14 13 14 14 14 15 15 15 15 15 15 15 14 14 15 14 14 14 14 14 14 13 13 13 13 13 13 13 12 12 12 12 11 11 11 11 11 10 10 10 9 9 9
13 14 14 14 14 14 14 14 14 14 14 14 14 14 14 14 14 14 14 14 13 13 13 13 13 13 13 12 12 12 12 11 11 11 11 11 11 10 10 10 9 9 9 9
13 13 13 13 13 13 14 14 14 14 14 14 14 14 14 14 13 13 13 13 13 13 13 13 12 12 12 12 12 12 12 11 11 11 11 11 10 10 10 9 9 9 9 9
12 13 13 13 13 13 13 13 13 14 14 14 13 13 13 13 13 13 13 12 12 12 12 12 12 12 12 12 12 11 11 11 11 10 10 10 10 9 9 9 9 9 8 8
12 12 12 12 13 13 13 13 13 13 13 13 13 13 13 13 13 12 12 12 12 12 12 12 12 12 12 11 11 11 11 11 10 10 10 9 9 9 9 9 8 8 8 8
12 12 12 12 13 13 13 13 13 13 13 13 13 13 12 12 12 12 12 12 12 12 12 12 11 12 11 11 11 11 10 10 10 10 9 9 9 9 9 8 8 8 8 8
12 12 12 12 12 12 13 13 13 13 12 12 12 12 12 12 12 12 12 12 12 12 12 11 11 11 11 11 10 10 10 10 9 9 9 9 9 9 8 8 8 8 7 7
11 11 11 12 12 12 12 12 12 12 12 12 12 12 12 11 11 11 12 12 12 12 11 11 11 11 10 10 10 10 9 9 9 9 9 8 8 8 8 8 8 7 7 7
11 11 11 11 11 11 11 12 12 12 11 11 11 11 11 11 11 11 11 11 11 11 10 10 10 10 10 10 9 9 9 9 9 9 8 8 8 8 8 7 7 7 7 7
10 10 11 11 11 11 11 11 11 11 11 11 11 11 11 11 11 11 11 10 10 10 10 10 10 9 9 9 9 9 9 8 8 8 8 8 8 7 7 7 7 7 6 6
10 10 10 10 10 10 10 11 11 11 11 11 11 11 10 10 10 10 10 10 10 9 9 9 9 9 9 9 9 8 8 8 8 7 7 7 7 7 7 6 6 6 6 6
Wind_Speed
8 6 7 9 10 12 14 12 11 9 8 6 4 3 3 5 6 6 7 8 9 9 9 10 10 10 10 10 10 10 10 10 9 8 8 7 6 6 6 6 5 5 5 5
9 8 8 11 12 12 13 13 12 11 10 5 3 3 4 5 6 7 7 8 8 8 9 10 11 10 10 10 10 10 10 10 8 8 8 7 7 7 6 6 6 5 5 5
9 8 8 12 12 13 13 12 12 12 9 5 5 5 5 5 6 7 7 7 8 8 8 9 9 10 11 11 11 11 10 10 9 9 9 8 8 7 7 7 6 6 5 5
7 7 10 5 4 8 11 11 11 10 7 7 6 5 5 5 6 6 6 7 7 7 7 7 8 9 10 10 11 10 10 10 9 9 9 8 8 7 7 7 6 5 5 5
6 8 8 6 6 8 9 9 9 10 7 5 5 5 5 4 5 5 5 6 6 7 7 7 8 10 10 10 11 10 10 9 10 9 9 9 8 8 7 6 6 5 5 5
7 8 7 4 4 6 7 8 7 9 8 7 6 6 5 4 5 4 4 4 5 6 6 7 8 10 11 11 10 10 9 9 9 9 9 9 8 8 7 7 6 5 5 4
10 9 7 3 4 7 8 4 6 8 9 9 7 4 4 5 5 4 4 4 5 5 5 6 8 10 10 10 10 9 8 8 8 8 8 8 8 7 7 7 6 6 5 4
8 9 7 5 7 7 4 1 4 7 8 8 5 4 5 6 6 5 5 5 6 5 5 6 8 9 10 9 9 8 8 8 8 8 8 7 8 8 8 7 7 6 6 5
7 6 1 5 6 4 3 4 4 6 7 7 6 6 6 6 6 6 6 6 5 5 5 6 7 8 9 8 8 8 9 8 8 8 8 8 8 8 8 7 6 6 5 5
7 7 6 6 5 5 5 5 4 5 6 7 7 6 7 7 6 6 6 5 5 6 6 6 7 7 7 7 8 9 9 8 8 8 8 8 6 7 7 7 6 6 6 5
8 6 5 6 6 5 4 4 4 4 5 6 7 7 7 7 7 6 5 5 5 6 6 6 7 6 6 7 9 9 9 9 8 8 8 7 6 4 5 5 5 6 6 6
7 6 6 5 4 4 5 5 5 5 5 5 6 7 7 7 6 6 6 6 6 6 6 6 7 6 6 7 9 9 9 8 7 7 7 6 6 5 5 3 6 4 3 3
7 6 6 5 5 4 4 4 5 5 5 5 6 6 7 6 6 6 6 7 6 6 6 6 7 7 6 7 8 9 9 8 7 7 7 7 7 7 6 5 6 6 5 5
6 5 5 5 5 4 4 4 4 4 4 5 5 6 6 6 6 7 6 6 6 6 6 7 7 7 7 7 8 9 8 7 7 7 7 7 7 6 6 6 6 4 4 6
6 6 6 4 4 4 4 4 5 5 4 5 6 6 7 7 7 6 6 6 6 6 6 7 7 6 6 7 8 8 8 7 7 6 6 7 7 6 6 6 6 5 5 6
7 5 4 5 5 5 5 6 6 6 6 6 6 6 6 6 6 6 6 6 7 7 7 7 7 6 7 7 8 7 7 8 7 7 7 7 7 7 6 6 6 6 6 5
7 7 6 6 6 7 6 6 6 6 6 7 7 6 6 6 6 6 6 6 6 6 6 7 7 7 7 7 7 6 7 8 8 7 6 7 6 6 6 6 6 5 5 5
9 9 9 9 7 7 6 6 6 6 6 7 7 7 7 7 7 6 6 6 6 5 6 6 7 7 7 7 6 6 7 7 7 6 6 6 6 6 6 6 6 6 5 5
9 8 8 7 7 6 6 6 6 6 6 7 8 8 7 7 6 7 7 8 7 7 6 7 7 8 7 7 6 6 6 7 7 6 6 7 6 6 6 6 6 6 5 5
7 7 7 6 6 6 6 6 6 6 6 8 8 7 7 7 7 7 8 7 6 5 7 8 8 7 7 7 7 6 7 7 7 6 6 6 6 6 5 5 5 5 5 5
6 6 6 6 5 5 6 6 6 7 7 8 9 9 8 8 8 8 7 6 5 6 7 8 7 6 6 7 7 6 6 6 6 6 6 6 6 6 5 5 5 5 4 4
5 5 5 5 5 5 5 5 6 7 8 8 8 8 8 8 8 7 7 5 6 7 7 6 6 7 8 8 7 6 6 6 6 6 6 6 6 5 5 5 5 4 4 4
5 5 5 5 5 4 5 5 6 7 8 8 8 9 8 7 7 7 6 5 6 8 7 6 7 11 11 7 6 6 6 6 6 6 6 6 5 5 5 5 5 4 4 4
4 4 4 4 4 4 5 5 5 6 6 7 7 7 7 6 5 5 4 7 8 9 6 8 11 12 9 6 6 6 6 6 5 5 5 5 5 5 5 5 4 4 4 4
3 4 4 4 4 4 4 5 5 5 6 5 6 7 6 5 5 5 6 8 9 9 7 9 12 11 7 6 6 6 6 5 5 5 5 5 5 5 4 5 4 4 4 4
3 3 3 4 3 3 3 4 4 5 5 5 5 5 5 5 6 6 6 8 10 8 7 7 8 8 6 6 6 6 6 6 6 5 5 5 5 5 4 4 5 4 4 4
2 2 2 2 2 3 3 4 4 5 5 6 6 6 6 6 6 7 7 7 8 7 6 6 6 6 6 6 6 6 5 5 5 5 5 4 5 5 5 5 5 4 4 5
Wind_Direction
247 249 237 236 229 221 227 238 248 256 259 264 258 230 202 184 176 178 183 183 181 182 181 181 182 181 179 179 178 176 177 180 180 177 173 169 162 164 165 163 164 159 152 148
237 236 241 243 236 230 230 236 243 254 256 254 241 205 191 185 178 186 189 189 187 188 183 185 186 183 180 180 180 178 180 181 175 173 171 171 167 166 164 163 161 155 152 146
243 233 244 243 233 227 229 231 236 243 246 230 222 214 204 195 188 192 195 194 194 193 191 191 192 185 182 180 177 179 180 175 174 174 172 174 170 167 165 165 161 159 156 151
245 234 239 240 217 227 233 237 235 239 239 231 225 215 204 192 189 193 193 196 199 199 195 193 190 185 179 175 176 179 179 176 176 176 173 171 170 170 171 166 161 164 161 158
230 236 248 243 219 212 222 235 227 225 225 217 204 196 201 192 196 198 192 191 192 194 192 187 184 181 177 176 176 177 178 179 177 177 174 171 171 172 171 166 163 167 165 162
225 232 238 232 193 201 222 235 214 211 207 196 192 209 204 184 187 191 179 175 177 181 180 177 180 177 175 176 176 180 181 182 179 177 175 175 174 170 166 166 165 163 160 168
228 235 245 227 175 186 215 234 190 201 201 198 205 219 176 167 172 172 163 158 159 164 171 177 176 175 178 178 180 180 177 177 174 174 176 173 167 165 164 164 163 164 162 164
218 227 235 166 171 201 236 207 191 197 199 199 195 181 167 167 164 164 161 157 159 160 164 172 174 175 180 184 181 172 167 169 172 173 170 165 161 163 166 163 163 166 167 163
216 228 253 182 206 233 257 224 207 200 196 190 189 191 183 174 168 168 165 161 162 160 156 165 173 178 183 180 171 167 166 168 169 169 167 166 165 165 166 167 170 174 174 173
230 235 238 233 249 252 251 239 225 206 193 192 195 191 183 174 172 170 169 167 164 161 160 167 173 180 181 172 168 167 168 168 169 167 163 164 166 170 171 174 178 180 179 179
238 247 252 241 243 254 251 236 219 205 196 190 187 189 182 177 174 171 168 166 167 170 171 171 171 174 172 170 169 170 169 168 168 164 158 158 156 161 173 175 182 181 181 180
240 244 246 249 251 253 238 222 207 198 193 188 186 183 181 177 170 166 165 163 165 169 170 169 166 169 169 170 172 172 169 169 166 161 157 156 151 135 79 102 110 120 120 155
262 269 266 259 253 243 236 219 202 195 190 187 185 181 177 169 164 163 163 165 168 168 168 166 165 165 168 171 174 174 171 168 164 162 160 159 158 156 147 114 104 114 124 133
259 253 252 246 243 235 223 200 188 178 178 180 177 174 171 165 161 163 166 167 166 163 164 164 163 164 166 170 173 174 170 163 163 164 165 164 163 164 164 161 155 148 143 147
245 251 258 256 230 212 192 181 178 179 177 175 171 170 170 168 165 163 160 160 161 162 163 163 163 162 162 165 169 169 164 162 164 161 162 162 161 160 162 164 162 158 154 151
239 244 242 231 219 206 198 195 195 193 186 180 176 175 171 165 159 155 159 165 167 167 166 166 166 162 162 165 164 163 160 152 157 159 160 161 161 161 164 166 166 167 171 166
225 229 230 231 226 218 213 209 207 201 191 185 179 171 166 163 161 160 164 172 172 169 169 169 164 159 164 167 162 161 158 156 158 160 162 163 164 166 168 170 170 171 175 165
237 238 234 233 227 224 221 214 207 202 195 184 173 171 175 178 178 174 170 167 163 164 169 168 160 160 162 162 158 158 159 159 163 164 162 165 166 169 169 170 172 173 171 161
236 236 236 237 233 223 214 210 207 202 191 179 177 182 184 187 185 177 172 172 171 173 173 164 155 163 162 157 150 153 156 157 159 159 159 155 163 167 168 171 173 175 172 170
233 230 229 231 228 219 212 209 201 197 192 185 183 183 185 188 186 181 179 183 186 179 167 159 161 165 161 156 151 154 154 157 158 158 159 164 167 169 170 172 174 175 174 174
225 223 224 224 221 216 210 205 197 196 191 187 187 187 187 185 184 183 181 183 178 164 160 158 165 163 161 154 157 157 155 156 159 161 161 163 165 166 167 168 170 171 172 172
222 219 221 219 214 209 205 201 197 193 185 184 186 183 179 179 183 187 189 186 168 157 161 168 168 154 152 151 160 158 159 159 159 161 163 165 167 167 166 165 165 165 168 170
226 223 219 216 211 201 196 197 194 188 185 184 181 180 181 180 181 181 184 179 167 162 166 167 152 145 150 158 157 156 156 157 157 160 163 167 168 168 166 165 162 163 166 166
223 220 221 218 200 190 195 196 189 187 185 185 184 181 178 176 181 188 176 156 156 157 165 150 146 150 157 160 157 157 157 158 157 157 158 159 159 159 161 161 161 162 162 161
217 215 211 200 199 205 200 183 178 178 178 178 177 179 179 178 175 169 161 158 153 154 153 149 149 152 158 157 158 158 158 156 152 152 154 154 154 155 156 158 160 161 160 161
211 206 208 211 213 203 188 182 181 183 179 177 175 170 165 157 155 154 152 155 154 152 151 152 156 159 160 158 157 155 151 147 146 150 153 153 155 155 156 160 160 161 159 159
204 190 186 190 195 196 194 193 192 190 187 182 173 168 164 159 155 155 154 153 154 156 155 155 158 161 158 156 153 151 151 150 152 153 152 155 159 161 161 160 159 158 159 160
Height
1500 1499 1501 1501 1502 1503 1503 1500 1503 1500 1500 1498 1499 1501 1504 1506 1508 1510 1512 1514 1517 1519 1522 1524 1527 1530 1533 1537 1540 1543 1545 1548 1551 1553 1555 1557 1559 1561 1563 1564 1566 1567 1568 1569
1500 1499 1499 1500 1498 1498 1499 1499 1498 1498 1498 1496 1499 1501 1502 1504 1506 1508 1510 1512 1514 1517 1519 1522 1525 1527 1531 1534 1537 1540 1543 1546 1549 1551 1553 1555 1557 1559 1561 1563 1565 1566 1567 1568
1499 1496 1498 1498 1490 1493 1494 1493 1494 1495 1494 1495 1497 1499 1500 1503 1505 1506 1508 1510 1512 1514 1517 1519 1522 1525 1528 1531 1535 1538 1541 1544 1546 1549 1551 1554 1556 1558 1559 1561 1563 1564 1565 1566
1498 1499 1506 1489 1484 1487 1489 1489 1489 1490 1491 1493 1496 1498 1500 1501 1503 1504 1506 1507 1509 1512 1514 1516 1519 1522 1525 1528 1532 1535 1538 1541 1544 1547 1549 1552 1554 1556 1558 1559 1561 1562 1564 1565
1497 1499 1493 1486 1483 1485 1487 1487 1486 1488 1490 1492 1495 1497 1498 1500 1501 1503 1504 1505 1507 1509 1511 1514 1517 1520 1523 1526 1529 1532 1535 1538 1541 1544 1547 1549 1551 1554 1556 1557 1559 1561 1562 1563
1495 1499 1497 1484 1480 1483 1486 1486 1484 1486 1488 1491 1493 1493 1495 1498 1499 1501 1502 1504 1505 1507 1509 1511 1514 1517 1520 1523 1526 1529 1532 1536 1539 1542 1544 1547 1549 1552 1553 1555 1557 1559 1560 1561
1492 1493 1484 1478 1480 1483 1489 1484 1482 1483 1486 1488 1489 1490 1494 1496 1498 1499 1501 1502 1503 1505 1507 1509 1512 1515 1518 1521 1524 1527 1530 1533 1536 1539 1542 1544 1547 1549 1551 1553 1555 1556 1558 1559
1488 1491 1486 1478 1480 1480 1479 1478 1480 1482 1484 1487 1489 1491 1492 1494 1496 1498 1499 1500 1502 1503 1505 1507 1510 1512 1515 1518 1521 1525 1527 1530 1533 1536 1539 1542 1544 1546 1549 1551 1552 1554 1556 1557
1479 1479 1476 1477 1477 1478 1478 1479 1480 1481 1483 1485 1487 1489 1491 1493 1495 1496 1498 1499 1500 1502 1503 1505 1508 1510 1513 1516 1519 1522 1525 1527 1530 1533 1536 1539 1541 1543 1546 1548 1549 1551 1553 1554
1475 1473 1475 1476 1476 1477 1477 1478 1479 1480 1482 1484 1486 1487 1489 1491 1493 1495 1496 1497 1499 1500 1502 1504 1506 1509 1511 1514 1516 1519 1522 1525 1528 1530 1533 1536 1538 1541 1543 1544 1546 1548 1550 1551
1472 1472 1473 1473 1474 1475 1476 1477 1478 1479 1480 1482 1483 1485 1488 1489 1491 1493 1494 1496 1497 1499 1500 1502 1504 1507 1509 1511 1514 1517 1519 1522 1525 1528 1530 1533 1535 1537 1539 1541 1543 1545 1547 1548
1470 1470 1471 1471 1472 1473 1474 1474 1476 1477 1479 1480 1482 1483 1486 1488 1489 1491 1493 1494 1495 1497 1498 1500 1503 1505 1507 1509 1512 1514 1517 1520 1522 1524 1527 1529 1532 1534 1537 1539 1541 1543 1544 1546
1469 1469 1470 1470 1470 1471 1472 1473 1474 1475 1477 1478 1480 1482 1484 1485 1487 1489 1491 1492 1494 1495 1497 1498 1501 1503 1505 1507 1510 1512 1514 1517 1519 1522 1524 1526 1529 1531 1533 1536 1537 1539 1541 1543
1467 1468 1468 1468 1468 1469 1470 1471 1472 1474 1475 1477 1478 1480 1482 1483 1485 1487 1489 1491 1492 1494 1495 1497 1499 1501 1503 1505 1507 1510 1512 1514 1517 1519 1521 1524 1526 1529 1531 1532 1534 1536 1538 1540
1464 1465 1466 1465 1466 1467 1468 1469 1470 1472 1473 1475 1476 1478 1480 1482 1483 1485 1487 1489 1491 1492 1494 1495 1497 1499 1501 1503 1505 1507 1510 1512 1514 1517 1519 1521 1523 1526 1528 1530 1532 1533 1535 1537
1462 1462 1463 1463 1464 1465 1466 1467 1468 1470 1471 1473 1474 1476 1478 1480 1482 1483 1485 1487 1489 1490 1492 1493 1495 1497 1499 1501 1503 1505 1508 1510 1512 1514 1516 1519 1521 1523 1525 1527 1529 1531 1533 1534
1459 1459 1460 1460 1461 1462 1463 1464 1466 1467 1469 1470 1472 1474 1476 1478 1480 1482 1484 1485 1487 1488 1490 1492 1494 1495 1497 1500 1501 1503 1505 1508 1510 1512 1514 1516 1518 1521 1523 1525 1526 1528 1530 1532
1454 1455 1456 1457 1457 1458 1460 1461 1463 1465 1466 1468 1470 1472 1474 1476 1478 1479 1481 1483 1484 1486 1488 1490 1492 1493 1496 1498 1500 1501 1503 1505 1508 1510 1511 1514 1516 1518 1520 1522 1523 1526 1527 1529
1450 1451 1452 1454 1454 1455 1456 1458 1460 1461 1463 1465 1467 1469 1471 1473 1475 1477 1479 1480 1482 1483 1485 1487 1489 1491 1493 1495 1497 1499 1501 1503 1505 1507 1509 1511 1513 1516 1517 1519 1521 1523 1524 1526
1445 1447 1449 1450 1451 1452 1453 1455 1456 1458 1460 1462 1464 1466 1468 1470 1472 1474 1476 1478 1480 1481 1483 1485 1487 1489 1491 1493 1495 1497 1499 1501 1503 1505 1507 1509 1511 1513 1515 1517 1518 1520 1522 1523
1442 1443 1445 1446 1447 1448 1450 1451 1453 1454 1456 1458 1461 1463 1465 1467 1469 1471 1473 1475 1477 1479 1481 1483 1485 1487 1489 1491 1493 1495 1497 1499 1501 1503 1504 1506 1508 1510 1512 1514 1515 1517 1518 1520
1438 1440 1441 1443 1444 1445 1447 1448 1450 1451 1453 1455 1457 1459 1461 1463 1466 1468 1470 1472 1474 1476 1478 1480 1482 1484 1486 1488 1491 1493 1495 1497 1498 1500 1502 1504 1506 1508 1509 1511 1512 1514 1515 1517
1435 1437 1438 1440 1441 1442 1443 1445 1446 1448 1450 1452 1454 1456 1458 1460 1462 1464 1466 1469 1471 1473 1475 1478 1480 1482 1484 1486 1488 1490 1492 1494 1496 1498 1499 1501 1503 1505 1507 1508 1510 1511 1512 1513
1432 1434 1435 1437 1438 1439 1441 1442 1443 1445 1447 1449 1451 1453 1455 1457 1459 1462 1464 1466 1468 1471 1473 1475 1477 1480 1482 1484 1486 1488 1490 1492 1494 1496 1497 1499 1501 1503 1504 1506 1507 1508 1509 1510
1430 1431 1432 1434 1435 1436 1438 1439 1440 1442 1444 1446 1448 1450 1452 1454 1456 1458 1461 1463 1465 1468 1470 1473 1475 1477 1479 1482 1484 1486 1488 1490 1491 1493 1495 1497 1498 1500 1502 1503 1504 1505 1506 1507
1428 1429 1430 1431 1432 1433 1434 1436 1437 1439 1441 1443 1445 1447 1449 1451 1453 1456 1458 1461 1463 1465 1468 1470 1472 1475 1477 1479 1481 1483 1485 1487 1489 1491 1493 1494 1496 1497 1499 1500 1501 1502 1503 1504
1425 1426 1427 1428 1429 1431 1432 1433 1434 1435 1437 1439 1441 1444 1446 1448 1451 1453 1456 1458 1461 1463 1465 1467 1470 1472 1474 1477 1479 1481 1483 1485 1487 1489 1490 1492 1493 1494 1496 1497 1498 1499 1500 1501